Time,TemperatureF,DewpointF,PressureIn,WindDirection,WindDirectionDegrees,WindSpeedMPH,WindSpeedGustMPH,Humidity,HourlyPrecipIn,Conditions,Clouds,dailyrainin,SoftwareType,DateUTC
2013-01-22 16:48:00,94.3,94.0,29.79,South,180,0.0,0.0,99,0.00,CLR,CLR,0.00,WeatherDisplay:10.37,2013-01-23 00:48:00,
2013-01-22 16:49:00,94.3,94.0,29.79,South,180,0.0,0.0,99,0.00,CLR,CLR,0.00,WeatherDisplay:10.37,2013-01-23 00:49:00,
2013-01-22 16:54:00,94.3,94.0,29.79,South,180,0.0,0.0,99,0.00,CLR,CLR,0.00,WeatherDisplay:10.37,2013-01-23 00:54:00,
2013-01-22 16:59:00,94.3,94.0,29.79,South,180,0.0,0.0,99,0.00,CLR,CLR,0.00,WeatherDisplay:10.37,2013-01-23 00:59:00,
2013-01-22 18:39:00,33.8,24.7,28.93,SE,137,6.0,7.0,69,0.00,CLR,CLR,0.00,WeatherDisplay:10.37,2013-01-23 02:39:00,
2013-01-22 18:44:00,33.6,24.2,28.93,SE,128,5.0,7.0,68,0.00,CLR,CLR,0.00,WeatherDisplay:10.37,2013-01-23 02:44:00,
2013-01-22 18:49:00,33.5,24.1,28.93,SE,125,6.0,6.0,68,0.00,CLR,CLR,0.00,WeatherDisplay:10.37,2013-01-23 02:49:00,
2013-01-22 18:54:00,33.4,24.0,28.94,SE,127,5.0,8.0,68,0.00,CLR,CLR,0.00,WeatherDisplay:10.37,2013-01-23 02:54:00,
2013-01-22 18:59:00,33.4,24.0,28.94,ESE,116,5.0,8.0,68,0.00,CLR,CLR,0.00,WeatherDisplay:10.37,2013-01-23 02:59:00,
2013-01-22 19:04:00,33.4,24.0,28.93,ESE,105,5.0,7.0,68,0.00,CLR,CLR,0.00,WeatherDisplay:10.37,2013-01-23 03:04:00,
2013-01-22 19:09:00,33.4,24.0,28.93,ESE,111,6.0,9.0,68,0.00,CLR,CLR,0.00,WeatherDisplay:10.37,2013-01-23 03:09:00,
2013-01-22 19:14:00,33.4,24.0,28.93,ESE,120,6.0,8.0,68,0.00,CLR,CLR,0.00,WeatherDisplay:10.37,2013-01-23 03:14:00,
2013-01-22 19:19:00,33.4,24.0,28.93,ESE,122,8.0,9.0,68,0.00,CLR,CLR,0.00,WeatherDisplay:10.37,2013-01-23 03:19:00,
2013-01-22 19:24:00,33.4,23.7,28.92,SE,125,8.0,9.0,67,0.00,CLR,CLR,0.00,WeatherDisplay:10.37,2013-01-23 03:24:00,
2013-01-22 19:29:00,33.6,23.8,28.93,SE,128,6.0,8.0,67,0.00,CLR,CLR,0.00,WeatherDisplay:10.37,2013-01-23 03:29:00,
2013-01-22 19:34:00,33.8,24.0,28.93,SE,125,6.0,9.0,67,0.00,CLR,CLR,0.00,WeatherDisplay:10.37,2013-01-23 03:34:00,
2013-01-22 19:39:00,33.8,24.0,28.93,SE,128,5.0,9.0,67,0.00,CLR,CLR,0.00,WeatherDisplay:10.37,2013-01-23 03:39:00,
2013-01-22 19:44:00,33.6,23.8,28.93,ESE,122,6.0,8.0,67,0.00,CLR,CLR,0.00,WeatherDisplay:10.37,2013-01-23 03:44:00,
2013-01-22 19:49:00,33.4,23.7,28.93,ESE,122,5.0,9.0,67,0.00,CLR,CLR,0.00,WeatherDisplay:10.37,2013-01-23 03:49:00,
2013-01-22 19:54:00,33.4,23.7,28.93,ESE,113,7.0,8.0,67,0.00,CLR,CLR,0.00,WeatherDisplay:10.37,2013-01-23 03:54:00,
2013-01-22 19:59:00,33.4,23.3,28.93,ESE,113,3.0,7.0,66,0.00,CLR,CLR,0.00,WeatherDisplay:10.37,2013-01-23 03:59:00,
2013-01-22 20:04:00,33.4,23.3,28.93,ESE,117,5.0,7.0,66,0.00,CLR,CLR,0.00,WeatherDisplay:10.37,2013-01-23 04:04:00,
2013-01-22 20:09:00,33.4,23.3,28.93,ESE,113,2.0,7.0,66,0.00,CLR,CLR,0.00,WeatherDisplay:10.37,2013-01-23 04:09:00,
2013-01-22 20:14:00,33.3,23.2,28.93,ESE,116,3.0,5.0,66,0.00,CLR,CLR,0.00,WeatherDisplay:10.37,2013-01-23 04:14:00,
2013-01-22 20:19:00,33.1,22.9,28.92,ESE,116,3.0,6.0,66,0.00,CLR,CLR,0.00,WeatherDisplay:10.37,2013-01-23 04:19:00,
2013-01-22 20:24:00,32.9,22.8,28.92,ESE,116,3.0,6.0,66,0.00,CLR,CLR,0.00,WeatherDisplay:10.37,2013-01-23 04:24:00,
2013-01-22 20:29:00,32.9,22.8,28.92,ESE,114,5.0,7.0,66,0.00,CLR,CLR,0.00,WeatherDisplay:10.37,2013-01-23 04:29:00,
2013-01-22 20:34:00,32.9,22.8,28.92,SE,125,6.0,6.0,66,0.00,CLR,CLR,0.00,WeatherDisplay:10.37,2013-01-23 04:34:00,
2013-01-22 20:39:00,32.7,23.0,28.92,SE,125,2.0,6.0,67,0.00,CLR,CLR,0.00,WeatherDisplay:10.37,2013-01-23 04:39:00,
2013-01-22 20:44:00,32.7,23.0,28.91,SE,128,3.0,5.0,67,0.00,CLR,CLR,0.00,WeatherDisplay:10.37,2013-01-23 04:44:00,
2013-01-22 20:49:00,32.7,23.0,28.91,SE,134,2.0,5.0,67,0.00,CLR,CLR,0.00,WeatherDisplay:10.37,2013-01-23 04:49:00,
2013-01-22 20:54:00,32.4,22.6,28.91,SE,131,3.0,6.0,67,0.00,CLR,CLR,0.00,WeatherDisplay:10.37,2013-01-23 04:54:00,
2013-01-22 20:59:00,32.0,22.3,28.91,SE,131,5.0,6.0,67,0.00,CLR,CLR,0.00,WeatherDisplay:10.37,2013-01-23 04:59:00,
2013-01-22 21:04:00,32.0,22.6,28.92,SSE,148,3.0,5.0,68,0.00,CLR,CLR,0.00,WeatherDisplay:10.37,2013-01-23 05:04:00,
2013-01-22 21:09:00,31.8,22.4,28.92,SE,143,3.0,5.0,68,0.00,CLR,CLR,0.00,WeatherDisplay:10.37,2013-01-23 05:09:00,
2013-01-22 21:14:00,31.5,22.5,28.92,SE,134,3.0,6.0,69,0.00,CLR,CLR,0.00,WeatherDisplay:10.37,2013-01-23 05:14:00,
2013-01-22 21:19:00,31.3,22.6,28.92,SE,126,5.0,6.0,70,0.00,CLR,CLR,0.00,WeatherDisplay:10.37,2013-01-23 05:19:00,
2013-01-22 21:24:00,31.3,22.6,28.92,ESE,121,5.0,5.0,70,0.00,CLR,CLR,0.00,WeatherDisplay:10.37,2013-01-23 05:24:00,
2013-01-22 21:29:00,31.3,22.6,28.92,ESE,123,2.0,5.0,70,0.00,CLR,CLR,0.00,WeatherDisplay:10.37,2013-01-23 05:29:00,
2013-01-22 21:34:00,31.4,22.8,28.92,SE,128,3.0,3.0,70,0.00,CLR,CLR,0.00,WeatherDisplay:10.37,2013-01-23 05:34:00,
2013-01-22 21:39:00,31.6,22.9,28.91,ESE,120,2.0,4.0,70,0.00,CLR,CLR,0.00,WeatherDisplay:10.37,2013-01-23 05:39:00,
2013-01-22 21:44:00,32.0,23.0,28.90,SE,126,5.0,5.0,69,0.00,CLR,CLR,0.00,WeatherDisplay:10.37,2013-01-23 05:44:00,
2013-01-22 21:49:00,32.4,23.7,28.91,SSE,167,2.0,3.0,70,0.00,CLR,CLR,0.00,WeatherDisplay:10.37,2013-01-23 05:49:00,
2013-01-22 21:54:00,32.2,23.2,28.91,SSE,166,2.0,5.0,69,0.00,CLR,CLR,0.00,WeatherDisplay:10.37,2013-01-23 05:54:00,
2013-01-22 21:59:00,32.2,23.1,28.91,SSE,149,2.0,3.0,69,0.00,CLR,CLR,0.00,WeatherDisplay:10.37,2013-01-23 05:59:00,
2013-01-22 22:04:00,32.0,23.0,28.91,SSE,154,1.0,2.0,69,0.00,CLR,CLR,0.00,WeatherDisplay:10.37,2013-01-23 06:04:00,
2013-01-22 22:09:00,32.0,23.0,28.91,SSE,147,1.0,2.0,69,0.00,CLR,CLR,0.00,WeatherDisplay:10.37,2013-01-23 06:09:00,
2013-01-22 22:14:00,31.8,23.1,28.92,SSE,163,0.0,1.0,70,0.00,CLR,CLR,0.00,WeatherDisplay:10.37,2013-01-23 06:14:00,
2013-01-22 22:19:00,31.6,23.0,28.91,SSE,152,1.0,2.0,70,0.00,CLR,CLR,0.00,WeatherDisplay:10.37,2013-01-23 06:19:00,
2013-01-22 22:24:00,31.5,22.8,28.91,SE,132,1.0,2.0,70,0.00,CLR,CLR,0.00,WeatherDisplay:10.37,2013-01-23 06:24:00,
2013-01-22 22:29:00,31.3,22.6,28.92,SE,142,3.0,4.0,70,0.00,CLR,CLR,0.00,WeatherDisplay:10.37,2013-01-23 06:29:00,
2013-01-22 22:34:00,31.2,22.6,28.92,SE,133,5.0,5.0,70,0.00,CLR,CLR,0.00,WeatherDisplay:10.37,2013-01-23 06:34:00,
2013-01-22 22:44:00,31.1,22.5,28.92,SE,126,2.0,5.0,70,0.00,CLR,CLR,0.00,WeatherDisplay:10.37,2013-01-23 06:44:00,
2013-01-22 22:49:00,31.3,22.6,28.92,ESE,120,1.0,3.0,70,0.00,CLR,CLR,0.00,WeatherDisplay:10.37,2013-01-23 06:49:00,
2013-01-22 22:54:00,31.3,22.6,28.93,ESE,113,3.0,3.0,70,0.00,CLR,CLR,0.00,WeatherDisplay:10.37,2013-01-23 06:54:00,
2013-01-22 22:59:00,31.3,22.6,28.93,ESE,112,2.0,3.0,70,0.00,CLR,CLR,0.00,WeatherDisplay:10.37,2013-01-23 06:59:00,
2013-01-22 23:04:00,31.3,22.3,28.93,ESE,102,1.0,2.0,69,0.00,CLR,CLR,0.00,WeatherDisplay:10.37,2013-01-23 07:04:00,
2013-01-22 23:09:00,31.5,22.5,28.93,ESE,116,1.0,5.0,69,0.00,CLR,CLR,0.00,WeatherDisplay:10.37,2013-01-23 07:09:00,
2013-01-22 23:19:00,31.9,22.6,28.93,East,94,2.0,3.0,68,0.00,CLR,CLR,0.00,WeatherDisplay:10.37,2013-01-23 07:19:00,
2013-01-22 23:24:00,32.2,22.5,28.92,East,97,1.0,3.0,67,0.00,CLR,CLR,0.00,WeatherDisplay:10.37,2013-01-23 07:24:00,
2013-01-22 23:29:00,32.7,22.9,28.93,ESE,122,2.0,5.0,67,0.00,CLR,CLR,0.00,WeatherDisplay:10.37,2013-01-23 07:29:00,
2013-01-22 23:34:00,32.9,22.8,28.93,SE,136,1.0,3.0,66,0.00,CLR,CLR,0.00,WeatherDisplay:10.37,2013-01-23 07:34:00,
2013-01-22 23:39:00,33.1,22.9,28.93,SE,130,0.0,2.0,66,0.00,CLR,CLR,0.00,WeatherDisplay:10.37,2013-01-23 07:39:00,
2013-01-22 23:44:00,33.1,22.9,28.95,SE,141,1.0,2.0,66,0.00,CLR,CLR,0.00,WeatherDisplay:10.37,2013-01-23 07:44:00,
2013-01-22 23:49:00,33.0,22.9,28.93,SSE,166,1.0,2.0,66,0.00,CLR,CLR,0.00,WeatherDisplay:10.37,2013-01-23 07:49:00,
2013-01-22 23:54:00,32.9,22.8,28.92,SE,138,0.0,3.0,66,0.00,CLR,CLR,0.00,WeatherDisplay:10.37,2013-01-23 07:54:00,
2013-01-22 23:59:00,32.9,23.5,28.94,SSE,156,3.0,7.0,68,0.00,CLR,CLR,0.00,WeatherDisplay:10.37,2013-01-23 07:59:00,